Weather in Veliky Hutor

Ukraine / Cherkassi District     49°51′42″N   32°06′19″E
temp.,
°C
wind,
m/s
gust,
m/s
humid.,
%
clouds,
%
prec.,
mm/h
press.,
hPa
HPBL,
m
19 september, sun
sun1900:00+15w3788100 0.4 1007253
03:00+14wnw358512 0.8 1007133
06:00+12wnw229154 0.0 100721
09:00+14wsw2479100 0.0 1007258
12:00+19sw46546 0.0 10071445
15:00+21wsw574179 0.1 10062179
18:00+14wnw588965 0.9 1007401
21:00+11w4787100 2.6 1008532
20 september, mon
mon2000:00+9w488788 1.2 1008602
03:00+8wsw5887100 1.3 1008575
06:00+8wsw5886100 0.2 1008846
09:00+8wsw6887100 0.3 1008809
12:00+9sw61186100 0.2 1009749
15:00+9w71088100 0.5 1009927
18:00+9w61188100 0.3 1011731
21:00+9w6983100 0.4 1012622
21 september, tue
tue2100:00+7w698795 0.0 1012647
03:00+6w6986100 0.0 1013665
06:00+6w6988100 0.1 1012656
09:00+6w6988100 0.3 1013853
12:00+6wnw6990100 0.3 1014926
15:00+6wnw6991100 0.6 1015933
18:00+6wnw61091100 0.2 1016984
21:00+6wnw6991100 0.3 1017946
22 september, wed
wed2200:00+7wnw6990100 0.1 1017809
03:00+6wnw6988100 0.4 1017767
06:00+6wnw5987100 0.3 1016690
09:00+6wnw5785100 0.5 1016857
12:00+6wnw5687100 0.3 1016928
15:00+7wnw4579100 0.6 1016946
18:00+6wnw3588100 0.3 1016916
21:00+6wnw2591100 0.6 1016384
23 september, thu
thu2300:00+6w2393100 0.2 1015282
03:00+6w2494100 0.7 1014248
06:00+6wnw1294100 0.3 1014210
09:00+7nw128891 0.4 1014300
12:00+8nw2283100 0.4 1014611
15:00+8wnw2384100 0.6 1014428
18:00+8wnw2490100 0.3 1015221
21:00+7w2391100 0.4 1015110